FW6174 Weather Reports


Display with metric or nautical units.
time (UTC)temp
F
wind
direction
speed
MPH
gust
MPH
rain 1hr
in
rain 24hr
in
rain mn
in
humidity
%
barometer
mb
20260503020541 61 359 0.0 0.0 0.00 0.00 0.00 63 1014.2
20260503020046 61 359 0.0 0.0 0.00 0.00 0.00 61 1014.1
20260503015539 62 359 0.0 0.0 0.00 0.00 0.00 60 1014.1
20260503015039 62 359 0.0 0.0 0.00 0.00 0.00 54 1014.2
20260503014539 63 359 0.0 0.0 0.00 0.00 0.00 53 1014.1
20260503014039 64 164 0.0 0.0 0.00 0.00 0.00 52 1014.0
20260503013539 64 164 0.0 0.0 0.00 0.00 0.00 51 1014.1
20260503013043 65 164 0.0 0.0 0.00 0.00 0.00 50 1014.1
20260503012538 65 162 0.0 1.0 0.00 0.00 0.00 46 1014.1
20260503012037 65 359 0.0 1.0 0.00 0.00 0.00 44 1014.1
20260503011543 66 359 0.0 3.0 0.00 0.00 0.00 42 1014.1
20260503011037 66 359 0.0 3.0 0.00 0.00 0.00 41 1014.1
20260503010539 66 359 0.0 2.0 0.00 0.00 0.00 42 1014.1
20260503010039 66 359 0.0 3.0 0.00 0.00 0.00 40 1014.3
20260503005537 66 359 1.0 3.0 0.00 0.00 0.00 39 1014.2
20260503005037 66 102 1.0 3.0 0.00 0.00 0.00 40 1014.2
20260503004537 66 359 0.0 3.0 0.00 0.00 0.00 43 1014.2
20260503004036 65 359 0.0 3.0 0.00 0.00 0.00 44 1014.2
20260503003539 65 359 0.0 3.0 0.00 0.00 0.00 44 1014.2
20260503003036 64 359 1.0 4.0 0.00 0.00 0.00 47 1014.3
20260503002536 63 359 1.0 4.0 0.00 0.00 0.00 44 1014.3
20260503002036 63 359 2.0 4.0 0.00 0.00 0.00 48 1014.4
20260503001536 64 359 1.0 4.0 0.00 0.00 0.00 50 1014.4
20260503001035 64 359 2.0 4.0 0.00 0.00 0.00 48 1014.3
20260503000535 63 359 0.0 4.0 0.00 0.00 0.00 50 1014.1
20260503000045 62 359 1.0 4.0 0.00 0.00 0.00 48 1014.2
20260502235534 62 359 1.0 3.0 0.00 0.00 0.00 52 1014.3
20260502235033 61 359 1.0 3.0 0.00 0.00 0.00 55 1014.5
20260502234533 61 359 0.0 2.0 0.00 0.00 0.00 54 1014.6
20260502234033 60 359 0.0 2.0 0.00 0.00 0.00 58 1014.8
20260502233530 60 359 0.0 2.0 0.00 0.00 0.00 65 1014.9
20260502233030 61 359 1.0 2.0 0.00 0.00 0.00 61 1014.9
20260502232534 62 359 0.0 2.0 0.00 0.00 0.00 56 1015.1
20260502232029 63 359 1.0 2.0 0.00 0.00 0.00 55 1015.0
20260502231530 64 359 0.0 3.0 0.00 0.00 0.00 48 1015.0
20260502231029 64 359 1.0 3.0 0.00 0.00 0.00 46 1014.9
20260502230529 64 359 0.0 2.0 0.00 0.00 0.00 45 1015.0
20260502230028 64 359 0.0 3.0 0.00 0.00 0.00 44 1015.0
20260502225527 64 359 0.0 2.0 0.00 0.00 0.00 44 1015.2
20260502225031 64 359 0.0 3.0 0.00 0.00 0.00 44 1015.3
20260502224526 64 359 1.0 3.0 0.00 0.00 0.00 43 1015.3
20260502224027 64 359 0.0 4.0 0.00 0.00 0.00 42 1015.2
20260502223526 65 359 1.0 4.0 0.00 0.00 0.00 42 1015.4
20260502223026 65 359 1.0 9.0 0.00 0.00 0.00 40 1015.4
20260502222525 65 359 0.0 9.0 0.00 0.00 0.00 40 1015.4
20260502222027 65 359 2.0 6.0 0.00 0.00 0.00 39 1015.5
20260502221529 66 359 3.0 6.0 0.00 0.00 0.00 38 1015.5
20260502221024 66 54 0.0 7.0 0.00 0.00 0.00 40 1015.5
20260502220523 65 93 2.0 7.0 0.00 0.00 0.00 38 1015.7
20260502220023 65 359 2.0 4.0 0.00 0.00 0.00 38 1015.7
20260502215522 65 359 1.0 4.0 0.00 0.00 0.00 40 1015.8
20260502215021 65 94 2.0 9.0 0.00 0.00 0.00 38 1016.0
20260502214521 65 359 3.0 9.0 0.00 0.00 0.00 39 1015.9
20260502214024 65 359 1.0 8.0 0.00 0.00 0.00 40 1016.1
20260502213521 65 359 2.0 8.0 0.00 0.00 0.00 41 1016.0
20260502213021 66 182 1.0 7.0 0.00 0.00 0.00 39 1016.1
20260502212520 67 133 2.0 6.0 0.00 0.00 0.00 38 1016.1
20260502212020 67 95 1.0 4.0 0.00 0.00 0.00 39 1016.1
20260502211518 66 359 0.0 8.0 0.00 0.00 0.00 42 1016.2
20260502211018 65 359 3.0 9.0 0.00 0.00 0.00 40 1016.2
20260502210517 65 359 2.0 9.0 0.00 0.00 0.00 41 1016.3
20260502210018 65 359 3.0 8.0 0.00 0.00 0.00 41 1016.4
20260502205517 65 359 4.0 8.0 0.00 0.00 0.00 39 1016.4
20260502205017 66 359 1.0 9.0 0.00 0.00 0.00 38 1016.4
20260502204518 66 359 2.0 9.0 0.00 0.00 0.00 39 1016.4
20260502204017 67 132 2.0 8.0 0.00 0.00 0.00 37 1016.5
20260502203517 67 81 2.0 8.0 0.00 0.00 0.00 39 1016.5
20260502203016 67 144 2.0 10.0 0.00 0.00 0.00 38 1016.6
20260502202515 67 135 2.0 10.0 0.00 0.00 0.00 36 1016.6
20260502202014 67 150 1.0 6.0 0.00 0.00 0.00 39 1016.6
20260502201514 67 359 2.0 8.0 0.00 0.00 0.00 37 1016.6
20260502201016 67 102 2.0 7.0 0.00 0.00 0.00 38 1016.7
20260502200514 67 23 1.0 5.0 0.00 0.00 0.00 39 1016.9
20260502200012 66 359 1.0 11.0 0.00 0.00 0.00 41 1016.9
20260502195511 66 359 3.0 11.0 0.00 0.00 0.00 40 1017.0
20260502195010 66 135 1.0 6.0 0.00 0.00 0.00 42 1017.0
20260502194510 66 359 3.0 9.0 0.00 0.00 0.00 42 1017.0
20260502194009 66 359 3.0 9.0 0.00 0.00 0.00 44 1017.2
20260502193510 65 43 1.0 11.0 0.00 0.00 0.00 47 1017.2
20260502193116 65 359 3.0 11.0 0.00 0.00 0.00 43 1017.2
20260502192507 65 359 4.0 10.0 0.00 0.00 0.00 44 1017.3
20260502192009 65 359 4.0 10.0 0.00 0.00 0.00 44 1017.3
20260502191507 65 359 2.0 6.0 0.00 0.00 0.00 42 1017.4
20260502191010 64 359 1.0 11.0 0.00 0.00 0.00 43 1017.3
20260502190505 64 359 5.0 12.0 0.00 0.00 0.00 42 1017.3
20260502190006 65 359 2.0 12.0 0.00 0.00 0.00 44 1017.4
20260502185505 65 359 3.0 9.0 0.00 0.00 0.00 42 1017.4
20260502185005 65 359 3.0 9.0 0.00 0.00 0.00 43 1017.4
20260502184507 65 359 1.0 5.0 0.00 0.00 0.00 47 1017.4
20260502184002 64 359 2.0 6.0 0.00 0.00 0.00 45 1017.5
20260502183503 64 359 1.0 9.0 0.00 0.00 0.00 44 1017.5
20260502183002 64 359 3.0 10.0 0.00 0.00 0.00 46 1017.5
20260502182601 64 359 2.0 11.0 0.00 0.00 0.00 44 1017.5
20260502182501 64 359 2.0 11.0 0.00 0.00 0.00 44 1017.6
20260502182100 64 359 5.0 11.0 0.00 0.00 0.00 42 1017.6
20260502181600 64 359 1.0 9.0 0.00 0.00 0.00 43 1017.7
20260502181100 65 359 2.0 9.0 0.00 0.00 0.00 42 1017.7
20260502180600 65 359 3.0 9.0 0.00 0.00 0.00 41 1017.7
20260502164050 60 359 1.0 6.0 0.00 0.00 0.00 50 1018.2
20260502163548 60 359 2.0 6.0 0.00 0.00 0.00 48 1018.2
20260502163050 60 359 0.0 3.0 0.00 0.00 0.00 49 1018.1
20260502162546 60 359 1.0 3.0 0.00 0.00 0.00 51 1018.2
20260502162042 59 359 1.0 5.0 0.00 0.00 0.00 51 1018.1
20260502161602 59 359 0.0 2.0 0.00 0.00 0.00 52 1018.1
20260502161041 58 359 1.0 5.0 0.00 0.00 0.00 53 1018.1
20260502160538 58 359 1.0 5.0 0.00 0.00 0.00 54 1018.2
20260502152029 53 359 0.0 2.0 0.00 0.00 0.00 71 1018.3
20260502151528 52 359 0.0 0.0 0.00 0.00 0.00 72 1018.4
20260502151025 52 359 0.0 1.0 0.00 0.00 0.00 74 1018.3
20260502150524 51 359 0.0 2.0 0.00 0.00 0.00 75 1018.3
20260502130506 43 359 0.0 2.0 0.00 0.00 0.00 84 1018.1
20260502123507 44 359 0.0 3.0 0.00 0.00 0.00 83 1018.1
20260502123003 43 359 0.0 3.0 0.00 0.00 0.00 82 1018.1
20260502122502 43 359 1.0 5.0 0.00 0.00 0.00 84 1018.1
20260502122002 43 359 2.0 4.0 0.00 0.00 0.00 82 1018.1
20260502121502 43 359 0.0 2.0 0.00 0.00 0.00 83 1018.1
20260502121002 43 359 0.0 1.0 0.00 0.00 0.00 83 1018.0
20260502120501 43 359 0.0 2.0 0.00 0.00 0.00 82 1018.1
20260502120136 43 359 1.0 2.0 0.00 0.00 0.00 82 1018.0
20260502115600 43 359 0.0 1.0 0.00 0.00 0.00 81 1018.1
20260502115059 43 359 0.0 1.0 0.00 0.00 0.00 81 1018.1
20260502114559 44 359 0.0 1.0 0.00 0.00 0.00 80 1018.0
20260502114058 44 359 0.0 2.0 0.00 0.00 0.00 81 1018.1
20260502113558 44 359 0.0 2.0 0.00 0.00 0.00 79 1018.1
20260502113058 44 359 0.0 2.0 0.00 0.00 0.00 79 1018.1
20260502112557 44 359 0.0 3.0 0.00 0.00 0.00 78 1018.1
20260502112057 44 359 0.0 3.0 0.00 0.00 0.00 78 1018.1
20260502111557 44 359 1.0 3.0 0.00 0.00 0.00 76 1018.1
20260502111056 44 359 0.0 1.0 0.00 0.00 0.00 76 1018.1
20260502110558 44 359 0.0 1.0 0.00 0.00 0.00 76 1018.1
20260502110056 44 359 0.0 3.0 0.00 0.00 0.00 76 1018.1
20260502105556 44 359 0.0 3.0 0.00 0.00 0.00 77 1018.1
20260502105055 44 359 1.0 4.0 0.00 0.00 0.00 78 1018.0
20260502104556 44 359 2.0 4.0 0.00 0.00 0.00 79 1018.1
20260502104054 44 359 1.0 3.0 0.00 0.00 0.00 79 1018.1
20260502103554 44 359 1.0 3.0 0.00 0.00 0.00 78 1018.0
20260502103054 44 359 1.0 3.0 0.00 0.00 0.00 78 1017.9
20260502102556 44 359 0.0 1.0 0.00 0.00 0.00 77 1017.9
20260502102052 44 359 0.0 2.0 0.00 0.00 0.00 77 1017.9
20260502101559 44 359 0.0 3.0 0.00 0.00 0.00 77 1017.9
20260502101052 44 359 1.0 3.0 0.00 0.00 0.00 78 1017.9
20260502100552 44 359 1.0 3.0 0.00 0.00 0.00 79 1017.9
20260502091045 45 359 1.0 3.0 0.00 0.00 0.00 73 1017.7
20260502090545 46 359 1.0 3.0 0.00 0.00 0.00 75 1017.7
20260502071534 46 359 1.0 2.0 0.00 0.00 0.00 75 1017.9
20260502071033 46 359 0.0 3.0 0.00 0.00 0.00 72 1017.8
20260502070536 47 359 1.0 3.0 0.00 0.00 0.00 69 1017.9
20260502070034 47 359 0.0 2.0 0.00 0.00 0.00 68 1017.8
20260502065532 47 359 1.0 3.0 0.00 0.00 0.00 71 1017.9
20260502065032 47 359 1.0 3.0 0.00 0.00 0.00 73 1017.9
20260502064534 47 359 1.0 3.0 0.00 0.00 0.00 74 1017.8
20260502064031 47 359 1.0 3.0 0.00 0.00 0.00 75 1017.8
20260502063532 47 359 0.0 3.0 0.00 0.00 0.00 74 1017.7
20260502063034 47 359 1.0 3.0 0.00 0.00 0.00 74 1017.7
20260502062527 47 359 1.0 3.0 0.00 0.00 0.00 69 1017.7
20260502062023 47 359 0.0 3.0 0.00 0.00 0.00 68 1017.6
20260502061524 47 359 0.0 2.0 0.00 0.00 0.00 67 1017.7
20260502061023 47 359 0.0 3.0 0.00 0.00 0.00 67 1017.6
20260502060522 47 359 1.0 3.0 0.00 0.00 0.00 66 1017.6
20260502060021 47 359 1.0 3.0 0.00 0.00 0.00 68 1017.6
20260502055521 47 359 1.0 3.0 0.00 0.00 0.00 69 1017.6
20260502055021 48 359 1.0 3.0 0.00 0.00 0.00 73 1017.7
20260502054523 48 359 1.0 3.0 0.00 0.00 0.00 75 1017.6
20260502054020 48 359 1.0 3.0 0.00 0.00 0.00 74 1017.6
20260502053520 48 359 1.0 3.0 0.00 0.00 0.00 73 1017.5
20260502053020 48 359 0.0 5.0 0.00 0.00 0.00 73 1017.5
20260502052520 48 359 2.0 5.0 0.00 0.00 0.00 72 1017.5
20260502052020 49 359 1.0 4.0 0.00 0.00 0.00 72 1017.5
20260502051523 49 359 2.0 4.0 0.00 0.00 0.00 72 1017.4
20260502051019 49 359 1.0 5.0 0.00 0.00 0.00 73 1017.5
20260502050519 50 359 2.0 5.0 0.00 0.00 0.00 72 1017.5
20260502050031 50 359 0.0 3.0 0.00 0.00 0.00 75 1017.5
20260502045519 50 359 1.0 4.0 0.00 0.00 0.00 69 1017.6
20260502045020 51 359 2.0 4.0 0.00 0.00 0.00 72 1017.5
20260502044518 51 359 0.0 2.0 0.00 0.00 0.00 69 1017.4
20260502044018 51 359 1.0 3.0 0.00 0.00 0.00 67 1017.5
20260502043518 51 359 0.0 2.0 0.00 0.00 0.00 66 1017.6
20260502043018 52 359 0.0 2.0 0.00 0.00 0.00 67 1017.6
20260502042517 52 359 0.0 3.0 0.00 0.00 0.00 66 1017.6
20260502042018 52 359 2.0 3.0 0.00 0.00 0.00 65 1017.5
20260502041525 52 359 0.0 4.0 0.00 0.00 0.00 64 1017.4
20260502041017 52 359 1.0 4.0 0.00 0.00 0.00 65 1017.3
20260502040517 52 359 2.0 4.0 0.00 0.00 0.00 66 1017.3
20260502040018 53 359 2.0 4.0 0.00 0.00 0.00 64 1017.4
20260502035517 53 359 1.0 4.0 0.00 0.00 0.00 64 1017.4
20260502035017 53 359 1.0 4.0 0.00 0.00 0.00 68 1017.3
20260502034520 54 359 2.0 4.0 0.00 0.00 0.00 66 1017.2
20260502034016 55 359 2.0 4.0 0.00 0.00 0.00 62 1017.2
20260502033517 55 359 1.0 5.0 0.00 0.00 0.00 61 1017.1
20260502033019 55 359 1.0 5.0 0.00 0.00 0.00 61 1017.1
20260502032514 55 359 2.0 4.0 0.00 0.00 0.00 61 1017.0
20260502032014 56 359 2.0 4.0 0.00 0.00 0.00 61 1016.9
20260502031514 56 359 2.0 4.0 0.00 0.00 0.00 61 1016.9
20260502031014 56 359 2.0 5.0 0.00 0.00 0.00 61 1016.8
20260502030514 56 359 2.0 5.0 0.00 0.00 0.00 61 1016.8
20260502030023 57 359 1.0 4.0 0.00 0.00 0.00 59 1016.7
20260502025512 57 359 3.0 5.0 0.00 0.00 0.00 58 1016.7
20260502025012 57 359 2.0 3.0 0.00 0.00 0.00 61 1016.6
20260502024511 57 359 1.0 3.0 0.00 0.00 0.00 65 1016.6
20260502024011 58 359 0.0 3.0 0.00 0.00 0.00 64 1016.5
20260502023511 59 359 1.0 3.0 0.00 0.00 0.00 60 1016.6
20260502023010 60 359 0.0 2.0 0.00 0.00 0.00 55 1016.6
20260502022508 60 359 0.0 2.0 0.00 0.00 0.00 54 1016.5
20260502022006 61 359 0.0 2.0 0.00 0.00 0.00 49 1016.4
20260502021506 61 359 0.0 2.0 0.00 0.00 0.00 47 1016.3
20260502021006 62 359 0.0 2.0 0.00 0.00 0.00 48 1016.2